Location: Unspecified
(0.0000°N, 0.0000°E)
Time: 06:36:49
(UTC+00:00)

LES 2 - Pass Details

Date: 10 October 2025
Orbit: 2783 x 14792 km, 32.1° (Epoch: 30 October)

Event Time Altitude Azimuth Distance (km) Brightness Sun altitude
Rises 17:41:39 0° 298° (WNW) 16,690 ? 1.3°
Reaches altitude 10° 18:05:47 10° 309° (NW) 12,818 ? -4.7°
Maximum altitude 18:43:30 39° 16° (NNE) 5,241 ? -14.1°
Enters shadow 18:55:02 19° 74° (ENE) 5,203 ? -16.9°
